Weather History for KBED - September, 2013

Change the Weather History Date:

Sunday, September 1, 2013

  Actual Average Record
Temperature  
Mean Temperature 74 °F -  
Max Temperature 79 °F 78 °F 95 °F (1969)
Min Temperature 69 °F 54 °F 39 °F (1975)
Cooling Degree Days 8    
Growing Degree Days 24 (Base 50)    
Moisture  
Dew Point 71 °F    
Average Humidity 93    
Maximum Humidity 100    
Minimum Humidity 84    
Precipitation  
Precipitation 0.35 in - - ()
Sea Level Pressure  
Sea Level Pressure 29.87 in    
Wind  
Wind Speed 5 mph (SSW)    
Max Wind Speed 12 mph    
Max Gust Speed -    
Visibility 8 miles    
Events Rain    
Averages and records for this station are not official NWS values.
T = Trace of Precipitation, MM = Missing Value Source: NWS Daily Summary

Daily Weather History Graph

Daily Weather History Graph

Search for Another Location

Airport or City:

Trip Planner

Search our weather history database for the weather conditions in past years. The results will help you decide how hot, cold, wet, or windy it might be!

Date:

Astronomy

Sep. 01, 2013 Rise Set
Actual Time 6:10 AM EDT 7:18 PM EDT
Civil Twilight 5:41 AM EDT 7:47 PM EDT
Nautical Twilight 5:06 AM EDT 8:22 PM EDT
Astronomical Twilight 4:30 AM EDT 8:58 PM EDT
Moon 2:26 AM EDT (9/1) 4:56 PM EDT (9/1)
Length of Visible Light 14h 06m
Length of Day
13h 08m
Waning Crescent, 14% of the Moon is Illuminated
Sep 1
Waning Crescent
Sep 5
New
Sep 12
First Quarter
Sep 19
Full
Sep 26
Last Quarter

Hourly Weather History & Observations

Time (EDT) Temp. Dew Point Humidity Pressure Visibility Wind Dir Wind Speed Gust Speed Precip Events Conditions
12:56 AM 72.0 °F 70.0 °F 93% 29.84 in 9.0 mi SSW 5.8 mph - N/A   Mostly Cloudy
1:56 AM 72.0 °F 70.0 °F 93% 29.82 in 8.0 mi SW 6.9 mph - N/A   Clear
2:56 AM 73.0 °F 71.1 °F 93% 29.82 in 8.0 mi SW 5.8 mph - N/A   Partly Cloudy
3:56 AM 72.0 °F 71.1 °F 97% 29.84 in 8.0 mi SW 6.9 mph - N/A   Mostly Cloudy
4:56 AM 72.0 °F 68.0 °F 87% 29.83 in 10.0 mi WNW 5.8 mph - 0.00 in Rain Light Rain
5:56 AM 70.0 °F 66.9 °F 90% 29.85 in 10.0 mi SW 4.6 mph - 0.00 in Rain Light Rain
6:56 AM 69.1 °F 66.9 °F 93% 29.86 in 10.0 mi SW 11.5 mph - 0.03 in Rain Light Rain
7:56 AM 70.0 °F 66.9 °F 90% 29.89 in 10.0 mi SW 4.6 mph - 0.00 in   Overcast
8:44 AM 71.6 °F 68.0 °F 88% 29.85 in 10.0 mi Calm Calm - N/A   Mostly Cloudy
8:56 AM 70.0 °F 68.0 °F 93% 29.89 in 10.0 mi SSW 5.8 mph - N/A   Overcast
9:56 AM 71.1 °F 69.1 °F 93% 29.91 in 10.0 mi Calm Calm - N/A   Overcast
10:56 AM 71.1 °F 69.1 °F 93% 29.91 in 2.5 mi Calm Calm - 0.03 in Rain Light Rain
11:06 AM 71.6 °F 69.8 °F 94% 29.87 in 3.0 mi Calm Calm - 0.01 in Rain Light Rain
11:22 AM 71.6 °F 69.8 °F 94% 29.87 in 1.8 mi Calm Calm - 0.07 in Rain Heavy Rain
11:56 AM 71.1 °F 70.0 °F 96% 29.91 in 1.0 mi Calm Calm - 0.26 in   Overcast
12:03 PM 71.6 °F 69.8 °F 94% 29.87 in 4.0 mi South 3.5 mph - N/A   Overcast
12:48 PM 71.6 °F 69.8 °F 94% 29.86 in 4.0 mi SW 5.8 mph - 0.00 in Rain Light Rain
12:56 PM 71.1 °F 70.0 °F 96% 29.89 in 10.0 mi Calm Calm - 0.00 in   Mostly Cloudy
1:56 PM 73.0 °F 72.0 °F 96% 29.88 in 10.0 mi SW 4.6 mph - 0.03 in Rain Light Rain
2:13 PM 73.4 °F 71.6 °F 94% 29.85 in 10.0 mi SSW 9.2 mph - 0.00 in   Mostly Cloudy
2:44 PM 73.4 °F 73.4 °F 100% 29.84 in 10.0 mi SSW 4.6 mph - 0.00 in   Scattered Clouds
2:56 PM 75.9 °F 73.0 °F 91% 29.87 in 10.0 mi SSW 5.8 mph - 0.00 in   Mostly Cloudy
3:56 PM 78.1 °F 73.0 °F 84% 29.86 in 10.0 mi SSW 8.1 mph - N/A   Mostly Cloudy
4:56 PM 78.1 °F 73.0 °F 84% 29.87 in 10.0 mi SSW 10.4 mph - N/A   Clear
5:56 PM 77.0 °F 73.0 °F 88% 29.87 in 10.0 mi SSW 4.6 mph - N/A   Scattered Clouds
6:56 PM 75.9 °F 72.0 °F 87% 29.87 in 10.0 mi South 3.5 mph - N/A   Scattered Clouds
7:22 PM 75.2 °F 71.6 °F 89% 29.84 in 10.0 mi South 3.5 mph - N/A   Mostly Cloudy
7:51 PM 73.4 °F 71.6 °F 94% 29.85 in 10.0 mi SSE 5.8 mph - N/A   Scattered Clouds
7:56 PM 75.0 °F 72.0 °F 90% 29.88 in 10.0 mi SSE 5.8 mph - N/A   Partly Cloudy
8:56 PM 73.0 °F 72.0 °F 96% 29.89 in 9.0 mi South 6.9 mph - N/A   Clear
9:56 PM 72.0 °F 71.1 °F 97% 29.89 in 9.0 mi South 5.8 mph - N/A   Clear
10:27 PM 71.6 °F 71.6 °F 100% 29.86 in 9.0 mi South 5.8 mph - N/A   Scattered Clouds
10:36 PM 71.6 °F 71.6 °F 100% 29.86 in 9.0 mi South 4.6 mph - N/A   Mostly Cloudy
10:56 PM 72.0 °F 71.1 °F 97% 29.90 in 10.0 mi South 6.9 mph - N/A   Overcast
11:56 PM 72.0 °F 71.1 °F 97% 29.90 in 10.0 mi South 5.8 mph - N/A   Mostly Cloudy